VKG118 LSZH-EHAM

Flight info

Callsign VKG118
Flight time 1h 4m
Altitude 34000
Route VEBIT T10 TORPA DCT EDOPI DCT GIVOR DCT SORAL DCT IBERA DCT BUB/N0434F300 Y28 HELEN
Aircraft A21N/M-SDE2E3FGHIRWXY/LB1

Departure

Time 2026-05-05 20:31
Airport Zürich Airport (LSZH)

Arrival

Time 2026-05-05 21:35
Airport Amsterdam Airport Schiphol (EHAM)
Time Latitude Longitude Altitude Speed Heading
2026-05-05 19:51 47.46040 8.55643 1408 ft 0 kts
2026-05-05 20:21 47.46039 8.55643 1402 ft 2 kts
2026-05-05 20:21 47.46013 8.55634 1406 ft 4 kts 22°
2026-05-05 20:22 47.45990 8.55621 1409 ft 2 kts 17°
2026-05-05 20:22 47.45969 8.55606 1412 ft 4 kts 50°
2026-05-05 20:22 47.45961 8.55573 1404 ft 4 kts 92°
2026-05-05 20:22 47.45962 8.55555 1408 ft 1 kts 96°
2026-05-05 20:23 47.45962 8.55554 1408 ft 0 kts 96°
2026-05-05 20:26 47.45962 8.55555 1401 ft 1 kts 96°
2026-05-05 20:26 47.45959 8.55590 1402 ft 7 kts 96°
2026-05-05 20:26 47.45951 8.55687 1403 ft 15 kts 96°
2026-05-05 20:27 47.45942 8.55821 1405 ft 13 kts 95°
2026-05-05 20:27 47.45930 8.55977 1413 ft 17 kts 96°
2026-05-05 20:27 47.45917 8.56170 1409 ft 20 kts 96°
2026-05-05 20:27 47.45915 8.56203 1409 ft 0 kts 96°
2026-05-05 20:28 47.45914 8.56216 1409 ft 5 kts 96°
2026-05-05 20:28 47.45961 8.56317 1413 ft 17 kts
2026-05-05 20:28 47.46086 8.56336 1406 ft 19 kts
2026-05-05 20:28 47.46203 8.56342 1404 ft 12 kts 332°
2026-05-05 20:29 47.46222 8.56318 1409 ft 0 kts 320°
2026-05-05 20:30 47.46226 8.56312 1406 ft 11 kts 319°
2026-05-05 20:30 47.46571 8.55836 1404 ft 116 kts 316°
2026-05-05 20:30 47.47307 8.54830 1434 ft 165 kts 320°
2026-05-05 20:31 47.48234 8.53654 2007 ft 178 kts 317°
2026-05-05 20:31 47.49151 8.52489 3090 ft 172 kts 320°
2026-05-05 20:31 47.50214 8.51534 3843 ft 185 kts 324°
2026-05-05 20:31 47.51323 8.50457 4548 ft 202 kts 319°
2026-05-05 20:32 47.52481 8.49147 5395 ft 214 kts 309°
2026-05-05 20:32 47.53306 8.47334 6538 ft 212 kts 287°
2026-05-05 20:32 47.53596 8.45220 7776 ft 209 kts 265°
2026-05-05 20:32 47.53316 8.43118 9005 ft 212 kts 246°
2026-05-05 20:33 47.52663 8.41135 10215 ft 217 kts 239°
2026-05-05 20:33 47.51764 8.39315 11339 ft 222 kts 225°
2026-05-05 20:33 47.50389 8.38103 12133 ft 249 kts 200°
2026-05-05 20:33 47.48574 8.37495 12573 ft 285 kts 193°
2026-05-05 20:34 47.46508 8.36917 12996 ft 318 kts 193°
2026-05-05 20:34 47.44250 8.36250 13463 ft 344 kts 194°
2026-05-05 20:34 47.41876 8.35374 14183 ft 355 kts 201°
2026-05-05 20:34 47.39666 8.33716 15065 ft 359 kts 216°
2026-05-05 20:35 47.37860 8.31225 15967 ft 364 kts 231°
2026-05-05 20:35 47.36499 8.28001 16875 ft 369 kts 241°
2026-05-05 20:35 47.35337 8.24657 17733 ft 374 kts 242°
2026-05-05 20:35 47.34152 8.21219 18515 ft 379 kts 242°
2026-05-05 20:36 47.32937 8.17748 19238 ft 384 kts 241°
2026-05-05 20:36 47.31696 8.14236 19968 ft 388 kts 241°
2026-05-05 20:36 47.30453 8.10675 20684 ft 393 kts 243°
2026-05-05 20:36 47.29485 8.06878 21374 ft 400 kts 252°
2026-05-05 20:37 47.29052 8.02796 22038 ft 409 kts 264°
2026-05-05 20:37 47.29224 7.98577 22670 ft 418 kts 276°
2026-05-05 20:37 47.30029 7.94419 23250 ft 428 kts 289°
2026-05-05 20:37 47.31457 7.90534 23779 ft 437 kts 300°
2026-05-05 20:38 47.33197 7.86841 24295 ft 440 kts 302°
2026-05-05 20:38 47.34965 7.83139 24782 ft 442 kts 301°
2026-05-05 20:38 47.36724 7.79414 25222 ft 444 kts 301°
2026-05-05 20:38 47.38478 7.75648 25639 ft 446 kts 301°
2026-05-05 20:39 47.40240 7.71877 26051 ft 447 kts 301°
2026-05-05 20:39 47.42003 7.68084 26447 ft 449 kts 301°
2026-05-05 20:39 47.43767 7.64266 26845 ft 451 kts 300°
2026-05-05 20:39 47.45537 7.60433 27219 ft 453 kts 301°
2026-05-05 20:40 47.47319 7.56573 27576 ft 454 kts 300°
2026-05-05 20:40 47.49093 7.52718 28028 ft 453 kts 300°
2026-05-05 20:40 47.50866 7.48866 28487 ft 453 kts 300°
2026-05-05 20:40 47.52631 7.45023 28948 ft 452 kts 300°
2026-05-05 20:41 47.54395 7.41185 29431 ft 450 kts 300°
2026-05-05 20:41 47.56150 7.37361 29931 ft 448 kts 300°
2026-05-05 20:41 47.57900 7.33544 30310 ft 447 kts 300°
2026-05-05 20:41 47.59646 7.29729 30671 ft 447 kts 300°
2026-05-05 20:42 47.61382 7.25919 31051 ft 446 kts 300°
2026-05-05 20:42 47.63121 7.22109 31423 ft 446 kts 300°
2026-05-05 20:42 47.64850 7.18301 31795 ft 445 kts 300°
2026-05-05 20:42 47.66580 7.14497 32183 ft 444 kts 300°
2026-05-05 20:43 47.68314 7.10691 32503 ft 445 kts 300°
2026-05-05 20:43 47.70048 7.06881 32840 ft 445 kts 300°
2026-05-05 20:43 47.71772 7.03069 33206 ft 445 kts 300°
2026-05-05 20:43 47.73496 6.99252 33567 ft 444 kts 300°
2026-05-05 20:44 47.75211 6.95439 33855 ft 445 kts 300°
2026-05-05 20:44 47.78621 6.87872 33889 ft 443 kts 300°
2026-05-05 20:45 47.83760 6.76421 33897 ft 445 kts 301°
2026-05-05 20:45 47.87196 6.68735 33874 ft 447 kts 301°
2026-05-05 20:46 47.90903 6.61293 33872 ft 451 kts 312°
2026-05-05 20:46 47.93358 6.58359 33869 ft 455 kts 325°
2026-05-05 20:46 47.96210 6.56283 33864 ft 459 kts 339°
2026-05-05 20:47 48.02492 6.54418 33869 ft 462 kts 350°
2026-05-05 20:47 48.08832 6.52968 33858 ft 460 kts 350°
2026-05-05 20:48 48.15149 6.51461 33859 ft 460 kts 349°
2026-05-05 20:48 48.21472 6.49939 33845 ft 460 kts 349°
2026-05-05 20:49 48.27470 6.46939 33844 ft 456 kts 329°
2026-05-05 20:49 48.32983 6.42216 33854 ft 457 kts 329°
2026-05-05 20:50 48.37600 6.38343 33849 ft 457 kts 330°
2026-05-05 20:50 48.44128 6.32964 33845 ft 457 kts 330°
2026-05-05 20:51 48.49715 6.28364 33843 ft 458 kts 330°
2026-05-05 20:51 48.55295 6.23733 33820 ft 458 kts 330°
2026-05-05 20:52 48.60874 6.19096 33817 ft 458 kts 330°
2026-05-05 20:52 48.66474 6.14489 33818 ft 458 kts 330°
2026-05-05 20:53 48.72061 6.09849 33837 ft 458 kts 330°
2026-05-05 20:53 48.77608 6.05214 33821 ft 459 kts 330°
2026-05-05 20:54 48.83193 6.00537 33812 ft 459 kts 330°
2026-05-05 20:54 48.88777 5.95844 33810 ft 459 kts 330°
2026-05-05 20:55 48.93421 5.91939 33805 ft 459 kts 330°
2026-05-05 20:55 48.99001 5.87237 33809 ft 458 kts 330°
2026-05-05 20:56 49.04573 5.82515 33806 ft 459 kts 330°
2026-05-05 20:56 49.10158 5.77789 33800 ft 459 kts 330°
2026-05-05 20:57 49.15735 5.73043 33803 ft 459 kts 330°
2026-05-05 20:57 49.21312 5.68276 33794 ft 459 kts 330°
2026-05-05 20:58 49.26890 5.63516 33790 ft 459 kts 330°
2026-05-05 20:58 49.32464 5.58737 33791 ft 459 kts 330°
2026-05-05 20:59 49.38034 5.53961 33788 ft 459 kts 330°
2026-05-05 20:59 49.43610 5.49155 33783 ft 460 kts 331°
2026-05-05 21:00 49.49179 5.44323 33791 ft 460 kts 331°
2026-05-05 21:00 49.54754 5.39507 33792 ft 460 kts 331°
2026-05-05 21:01 49.60325 5.34677 33789 ft 459 kts 331°
2026-05-05 21:01 49.65895 5.29819 33786 ft 461 kts 331°
2026-05-05 21:02 49.71486 5.24936 33793 ft 462 kts 331°
2026-05-05 21:02 49.77076 5.20045 33798 ft 462 kts 331°
2026-05-05 21:03 49.82671 5.15132 33799 ft 462 kts 331°
2026-05-05 21:03 49.88265 5.10207 33797 ft 465 kts 331°
2026-05-05 21:04 49.93899 5.05236 33802 ft 466 kts 331°
2026-05-05 21:04 49.99489 5.00287 33819 ft 466 kts 330°
2026-05-05 21:05 50.05126 4.95288 33817 ft 466 kts 330°
2026-05-05 21:05 50.10765 4.90266 33820 ft 468 kts 330°
2026-05-05 21:06 50.16416 4.85231 33826 ft 469 kts 330°
2026-05-05 21:06 50.22078 4.80170 33825 ft 469 kts 330°
2026-05-05 21:07 50.27733 4.75101 33836 ft 469 kts 330°
2026-05-05 21:07 50.33383 4.70007 33828 ft 469 kts 330°
2026-05-05 21:08 50.39027 4.64910 33845 ft 468 kts 330°
2026-05-05 21:08 50.44667 4.59816 33854 ft 466 kts 330°
2026-05-05 21:09 50.50266 4.54744 33847 ft 464 kts 330°
2026-05-05 21:09 50.55854 4.49657 33848 ft 464 kts 330°
2026-05-05 21:10 50.61443 4.44558 33849 ft 464 kts 330°
2026-05-05 21:10 50.67024 4.39453 33867 ft 464 kts 330°
2026-05-05 21:11 50.72611 4.34329 33873 ft 464 kts 329°
2026-05-05 21:11 50.78181 4.29209 33875 ft 462 kts 330°
2026-05-05 21:12 50.83663 4.24156 33065 ft 449 kts 329°
2026-05-05 21:12 50.86370 4.21652 31906 ft 452 kts 329°
2026-05-05 21:12 50.89102 4.19128 30656 ft 457 kts 329°
2026-05-05 21:13 50.91864 4.16571 29200 ft 463 kts 329°
2026-05-05 21:13 50.94655 4.13980 27711 ft 467 kts 329°
2026-05-05 21:13 50.97439 4.11389 26655 ft 460 kts 329°
2026-05-05 21:13 51.00175 4.08843 25764 ft 452 kts 329°
2026-05-05 21:14 51.02857 4.06335 24841 ft 444 kts 329°
2026-05-05 21:14 51.05494 4.03866 23882 ft 437 kts 329°
2026-05-05 21:14 51.08101 4.01432 22821 ft 431 kts 329°
2026-05-05 21:14 51.10629 3.99074 21768 ft 424 kts 329°
2026-05-05 21:15 51.13185 3.96688 20734 ft 417 kts 329°
2026-05-05 21:15 51.15658 3.94363 19713 ft 410 kts 328°
2026-05-05 21:15 51.18095 3.92058 18746 ft 403 kts 328°
2026-05-05 21:15 51.20524 3.89913 17726 ft 397 kts 335°
2026-05-05 21:16 51.23123 3.88817 16685 ft 389 kts 353°
2026-05-05 21:16 51.25823 3.88940 15707 ft 379 kts 10°
2026-05-05 21:16 51.28275 3.90124 14818 ft 368 kts 25°
2026-05-05 21:16 51.30496 3.92148 13949 ft 358 kts 33°
2026-05-05 21:17 51.32545 3.94244 13146 ft 352 kts 33°
2026-05-05 21:17 51.34584 3.96331 12238 ft 345 kts 33°
2026-05-05 21:17 51.36604 3.98365 11292 ft 342 kts 32°
2026-05-05 21:17 51.38607 4.00363 10548 ft 335 kts 32°
2026-05-05 21:18 51.40541 4.02292 10139 ft 319 kts 32°
2026-05-05 21:18 51.42366 4.04108 9968 ft 298 kts 32°
2026-05-05 21:18 51.44076 4.05811 9892 ft 286 kts 32°
2026-05-05 21:18 51.45761 4.07485 9871 ft 284 kts 32°
2026-05-05 21:19 51.47435 4.09163 9870 ft 284 kts 32°
2026-05-05 21:19 51.49116 4.10838 9873 ft 285 kts 32°
2026-05-05 21:19 51.50791 4.12513 9876 ft 283 kts 32°
2026-05-05 21:19 51.52447 4.14167 9766 ft 275 kts 32°
2026-05-05 21:20 51.54068 4.15795 9087 ft 278 kts 32°
2026-05-05 21:20 51.55709 4.17438 8854 ft 278 kts 32°
2026-05-05 21:20 51.57350 4.19081 8838 ft 278 kts 32°
2026-05-05 21:20 51.58992 4.20733 8857 ft 278 kts 32°
2026-05-05 21:21 51.60636 4.22385 8877 ft 277 kts 32°
2026-05-05 21:21 51.62271 4.24036 8876 ft 274 kts 32°
2026-05-05 21:21 51.63871 4.25662 8332 ft 273 kts 32°
2026-05-05 21:21 51.65481 4.27295 7966 ft 272 kts 32°
2026-05-05 21:22 51.67090 4.28909 7873 ft 273 kts 32°
2026-05-05 21:22 51.68710 4.30529 7865 ft 273 kts 32°
2026-05-05 21:22 51.70314 4.32141 7809 ft 266 kts 32°
2026-05-05 21:22 51.71886 4.33724 7274 ft 269 kts 32°
2026-05-05 21:23 51.73476 4.35330 6981 ft 268 kts 32°
2026-05-05 21:23 51.75056 4.36931 6899 ft 267 kts 32°
2026-05-05 21:23 51.76613 4.38507 6890 ft 268 kts 32°
2026-05-05 21:23 51.78213 4.40132 6902 ft 268 kts 32°
2026-05-05 21:24 51.79770 4.41711 6903 ft 266 kts 32°
2026-05-05 21:24 51.81349 4.43317 6897 ft 269 kts 32°
2026-05-05 21:24 51.82912 4.44910 6757 ft 264 kts 32°
2026-05-05 21:24 51.84483 4.46504 6869 ft 266 kts 32°
2026-05-05 21:25 51.86056 4.48110 6906 ft 268 kts 32°
2026-05-05 21:25 51.87640 4.49724 6920 ft 268 kts 32°
2026-05-05 21:25 51.89213 4.51334 6907 ft 267 kts 32°
2026-05-05 21:25 51.90788 4.52946 6904 ft 268 kts 32°
2026-05-05 21:26 51.92368 4.54558 6911 ft 268 kts 32°
2026-05-05 21:26 51.93942 4.56166 6898 ft 266 kts 32°
2026-05-05 21:26 51.95515 4.57774 6901 ft 268 kts 32°
2026-05-05 21:26 51.97066 4.59364 6723 ft 258 kts 32°
2026-05-05 21:27 51.98577 4.60955 6216 ft 259 kts 35°
2026-05-05 21:27 52.00002 4.62754 5875 ft 259 kts 39°
2026-05-05 21:27 52.01393 4.64621 5568 ft 256 kts 39°
2026-05-05 21:27 52.02759 4.66464 5292 ft 253 kts 39°
2026-05-05 21:28 52.04122 4.68283 5002 ft 254 kts 39°
2026-05-05 21:28 52.05476 4.70068 4723 ft 245 kts 39°
2026-05-05 21:28 52.06766 4.71748 4430 ft 230 kts 38°
2026-05-05 21:28 52.07980 4.73311 4161 ft 215 kts 38°
2026-05-05 21:29 52.09161 4.74654 3923 ft 201 kts 30°
2026-05-05 21:29 52.10403 4.75517 3696 ft 188 kts 18°
2026-05-05 21:29 52.11638 4.75967 3474 ft 176 kts 11°
2026-05-05 21:29 52.12821 4.76197 3259 ft 166 kts
2026-05-05 21:30 52.13965 4.76335 3042 ft 165 kts
2026-05-05 21:30 52.15101 4.76445 2829 ft 162 kts
2026-05-05 21:30 52.16197 4.76546 2630 ft 149 kts
2026-05-05 21:30 52.17157 4.76634 2422 ft 126 kts
2026-05-05 21:31 52.18009 4.76714 2234 ft 121 kts
2026-05-05 21:31 52.18839 4.76791 2056 ft 118 kts
2026-05-05 21:31 52.19640 4.76865 1901 ft 116 kts
2026-05-05 21:31 52.20451 4.76940 1742 ft 115 kts
2026-05-05 21:32 52.21254 4.77014 1605 ft 117 kts
2026-05-05 21:32 52.22034 4.77086 1459 ft 109 kts
2026-05-05 21:32 52.22777 4.77154 1303 ft 108 kts
2026-05-05 21:32 52.23526 4.77223 1147 ft 107 kts
2026-05-05 21:33 52.24271 4.77282 969 ft 107 kts
2026-05-05 21:33 52.25007 4.77340 824 ft 105 kts
2026-05-05 21:33 52.25763 4.77434 699 ft 110 kts
2026-05-05 21:33 52.26519 4.77490 568 ft 106 kts
2026-05-05 21:34 52.27257 4.77568 402 ft 108 kts
2026-05-05 21:34 52.28002 4.77630 285 ft 108 kts
2026-05-05 21:34 52.28757 4.77706 134 ft 110 kts
2026-05-05 21:34 52.29515 4.77772 37 ft 108 kts
2026-05-05 21:35 52.30199 4.77838 24 ft 87 kts
2026-05-05 21:35 52.30593 4.77878 25 ft 28 kts
2026-05-05 21:35 52.30792 4.77895 18 ft 33 kts
2026-05-05 21:35 52.30951 4.77809 17 ft 19 kts 328°
2026-05-05 21:36 52.31005 4.77768 18 ft 11 kts 333°
2026-05-05 21:36 52.31076 4.77709 22 ft 11 kts 334°
2026-05-05 21:36 52.31135 4.77655 19 ft 7 kts 309°
2026-05-05 21:36 52.31155 4.77565 18 ft 10 kts 265°
2026-05-05 21:37 52.31102 4.77486 16 ft 12 kts 215°
2026-05-05 21:37 52.31072 4.77393 14 ft 7 kts 231°
2026-05-05 21:37 52.31018 4.77364 14 ft 10 kts 181°
2026-05-05 21:37 52.30998 4.77364 14 ft 0 kts 180°